SZ-19 DEB, 63801

Orbit data source: Space-Track

SZ-19 DEB, 63801 is space debris in LEO originally from a launch on Tue, 29 Oct 2024 UTC launched from the Jiuquan Satellite Launch Center, China (JSC). Debris objects in space refer to the collection of defunct objects orbiting the Earth. Examples of debris include non-operational satellites, rocket bodies, and fragments generated from explosions, collisions, or faulty payload assembly.

Loading next visibility...
Identifier
63801, 2024-194E
Orbit
LEO
Last TLE update
7 hours ago
Origin
Flag of CNCMSEO (CN / PRC)
Manufacturer
CAST
Mission
Civil Spaceship
Bus & Motor
SHENZHOU OM, Unknown motor
Mass
~1,842 kg wet, ~1,500 kg dry
Launch date (UTC)
2024-10-29 (8 months ago)
Launch vehicle
Unknown
Launch site
Jiuquan Satellite Launch Center, China (JSC)
Object type
Payload
Rocket body
Debris
Shape & HBR
Cyl + 2 Pan, 4.3 m
Radar Cross Section
9.277 m², Large (>1 m²)

Expand to show TLE details & history

TLE from 7 hours ago
0 SZ-19 DEB
1 63801U 24194E   25183.57759213  .00022256  00000-0  22754-3 0  9996
2 63801  41.4736 285.6155 0005709  10.5990 349.4969 15.64475248  9663
Epoch: 2025-07-02T13:51Z
TLE epoch observation values (Epoch: 2025-07-02T13:51:43.96Z)
Latitude
-0.00004°
Longitude
156.82559°
Altitude
370.558 km
Speed
7.691 km/s
True Right ascension
19h 02m 27s
True Declination
0° 00' 00"
Sunlit
Object was in full shadow at epoch
Visualization orbit readout
Latitude
-36.27849°
Longitude
99.27508°
Altitude
384.078 km
Speed
7.681 km/s
Apparent Right ascension
17h 54m 10s
Apparent Declination
-46° 53' 60"
Sunlit
Object is in full shadow
Visualization observer readout
Local Sidereal Time
08:59:27
Azimuth
117.499° SE
Elevation
-56.145°
Doppler factor
1
Orbital elements
Apogee altitude
380.841 km
Perigee altitude
373.128 km
Semi-major axis
6,755.121 km
Eccentricity
0.00057
Inclination
41.4736°
RAAN
285.6155°
Arg. of periapsis
10.599°
True anomaly
Unknown
Mean anomaly
349.4969°
Eccentric anomaly
Unknown
Mean motion
3.90925 °/min
Orbital period
92.09 mins
BSTAR
0.00022754
Loading maneuver chart data...
Loading SW <> Apogee altitude chart data...
Loading historical data...
Loading historical data...
Loading historical data...
Loading historical data...
Loading historical data...
Loading historical data...
Loading historical data...

SZ-19 DEB Visibility forecast

Observer location: undefined°, undefined°

Span
Click to sort rows by Start time (UTC) header in descending order
Start Az.
Max El. time (UTC)
Max El. Az.
Max El.
End time (UTC)
End Az.
4 mins2025-07-03 09:59:17.443Z203.63° SW2025-07-03 10:01:17.443Z158.443° S21.608°2025-07-03 10:03:17.443Z105.071° ESE
4 mins2025-07-03 11:36:17.443Z257.115° W2025-07-03 11:38:17.443Z75.176° E42.186°2025-07-03 11:40:17.443Z77.039° E
4 mins2025-07-03 13:13:17.443Z290.359° WNW2025-07-03 13:14:17.443Z324.288° NNW40.414°2025-07-03 13:17:17.443Z86.037° E
4 mins2025-07-03 14:49:17.443Z272.342° WNW2025-07-03 14:51:17.443Z195.658° SSW38.517°2025-07-03 14:53:17.443Z127.876° SE
|